Weather History for Dumas, TX

Change the Weather History Date:

Friday, July 12, 2013

  Actual Average (KBGD) Record (KBGD)
Temperature  
Mean Temperature 83 °F 82 °F  
Max Temperature 99 °F 94 °F 104 °F (2001)
Min Temperature 68 °F 70 °F 58 °F (1999)
Degree Days  
Heating Degree Days 0 0  
Month to date heating degree days 0  
Since 1 June heating degree days 3  
Since 1 July heating degree days 0  
Cooling Degree Days 18 17  
Month to date cooling degree days 196  
Year to date cooling degree days 751  
Since 1 June cooling degree days 554  
Growing Degree Days 33 (Base 50)    
Moisture  
Dew Point 55 °F    
Average Humidity 40    
Maximum Humidity 71    
Minimum Humidity 21    
Precipitation  
Precipitation 0.00 in 0.06 in 1.06 in (1991)
Month to date precipitation 1.07  
Year to date precipitation 11.29  
Snow  
Snow 0.00 in - 0.00 in (2013)
Month to date snowfall  
Since 1 June snowfall  
Since 1 July snowfall  
Snow Depth -    
Sea Level Pressure  
Sea Level Pressure 30.02 in    
Wind  
Wind Speed 13 mph (South)    
Max Wind Speed 21 mph    
Max Gust Speed 31 mph    
Visibility 10 miles    
Events      
T = Trace of Precipitation, MM = Missing Value Source: NWS Daily Summary

Daily Weather History Graph

Daily Weather History Graph

Search for Another Location

Airport:

Trip Planner

Search our weather history database for the weather conditions in past years. The results will help you decide how hot, cold, wet, or windy it might be!

Date:

Astronomy

Jul. 12, 2013 Rise Set
Actual Time 6:41 AM CDT 9:05 PM CDT
Civil Twilight 6:11 AM CDT 9:35 PM CDT
Nautical Twilight 5:35 AM CDT 10:11 PM CDT
Astronomical Twilight 4:55 AM CDT 10:51 PM CDT
Moon 10:50 AM CDT (7/12) 11:28 PM CDT (7/12)
Length of Visible Light 15h 23m
Length of Day
14h 24m
Waxing Crescent, 17% of the Moon is Illuminated
Jul 12
Waxing Crescent
Jul 15
First Quarter
Jul 22
Full
Jul 29
Last Quarter
Aug 6
New

Hourly Weather History & Observations

Time (CDT) Temp. Heat Index Dew Point Humidity Pressure Visibility Wind Dir Wind Speed Gust Speed Precip Events Conditions
12:15 AM 77.0 °F - 59.0 °F 54% 30.05 in 10.0 mi SSE 13.8 mph 20.7 mph N/A   Clear
12:35 AM 76.3 °F - 59.4 °F 56% 30.06 in 10.0 mi SSE 12.7 mph - N/A   Clear
12:55 AM 76.1 °F - 59.5 °F 56% 30.05 in 10.0 mi SSE 16.1 mph 23.0 mph N/A   Clear
1:15 AM 75.0 °F - 59.4 °F 58% 30.05 in 10.0 mi SSE 10.4 mph - N/A   Clear
1:35 AM 74.5 °F - 59.4 °F 59% 30.04 in 10.0 mi SSE 11.5 mph 16.1 mph N/A   Clear
1:55 AM 73.9 °F - 59.4 °F 60% 30.04 in 10.0 mi SSE 11.5 mph - N/A   Clear
2:15 AM 73.2 °F - 59.7 °F 63% 30.04 in 10.0 mi SE 9.2 mph - N/A   Clear
2:35 AM 72.5 °F - 59.9 °F 64% 30.04 in 10.0 mi SE 10.4 mph - N/A   Clear
2:55 AM 72.0 °F - 59.9 °F 66% 30.04 in 10.0 mi SSE 10.4 mph - N/A   Clear
3:15 AM 71.6 °F - 59.5 °F 66% 30.04 in 10.0 mi SSE 8.1 mph - N/A   Clear
3:35 AM 70.2 °F - 59.4 °F 69% 30.03 in 10.0 mi SSE 8.1 mph - N/A   Clear
3:55 AM 70.2 °F - 59.0 °F 68% 30.03 in 10.0 mi SSE 9.2 mph - N/A   Clear
4:15 AM 70.5 °F - 58.5 °F 66% 30.03 in 10.0 mi South 9.2 mph - N/A   Clear
4:35 AM 71.6 °F - 58.3 °F 63% 30.03 in 10.0 mi SSE 10.4 mph - N/A   Clear
4:55 AM 72.1 °F - 58.1 °F 61% 30.03 in 10.0 mi SSE 10.4 mph - N/A   Clear
5:15 AM 72.7 °F - 57.7 °F 59% 30.02 in 10.0 mi South 11.5 mph - N/A   Clear
5:35 AM 73.4 °F - 57.7 °F 58% 30.02 in 10.0 mi South 11.5 mph - N/A   Clear
5:55 AM 72.7 °F - 57.7 °F 59% 30.03 in 10.0 mi South 10.4 mph - N/A   Clear
6:15 AM 71.6 °F - 57.6 °F 61% 30.03 in 10.0 mi South 9.2 mph - N/A   Clear
6:35 AM 70.5 °F - 57.6 °F 63% 30.03 in 10.0 mi South 6.9 mph - N/A   Clear
6:55 AM 68.2 °F - 58.3 °F 71% 30.04 in 10.0 mi SE 8.1 mph - N/A   Clear
7:15 AM 69.6 °F - 58.1 °F 67% 30.05 in 10.0 mi SSE 8.1 mph - N/A   Clear
7:35 AM 72.5 °F - 58.1 °F 60% 30.05 in 10.0 mi South 10.4 mph - N/A   Clear
7:55 AM 72.7 °F - 58.1 °F 60% 30.05 in 10.0 mi SSW 9.2 mph - N/A   Clear
8:15 AM 77.2 °F - 58.3 °F 52% 30.05 in 10.0 mi SSW 11.5 mph - N/A   Clear
8:35 AM 76.5 °F - 58.3 °F 53% 30.05 in 10.0 mi South 9.2 mph - N/A   Clear
8:55 AM 79.9 °F - 58.1 °F 47% 30.05 in 10.0 mi South 11.5 mph - N/A   Clear
9:15 AM 83.3 °F 82.8 °F 57.2 °F 41% 30.06 in 10.0 mi SSW 15.0 mph - N/A   Clear
9:35 AM 83.5 °F 82.8 °F 56.7 °F 40% 30.06 in 10.0 mi SSW 13.8 mph - N/A   Clear
9:55 AM 86.0 °F 84.7 °F 56.5 °F 36% 30.06 in 10.0 mi SSW 17.3 mph - N/A   Clear
10:15 AM 87.3 °F 85.9 °F 56.3 °F 35% 30.06 in 10.0 mi SSW 15.0 mph 24.2 mph N/A   Clear
10:35 AM 88.7 °F 87.1 °F 55.8 °F 33% 30.05 in 10.0 mi SSW 17.3 mph 23.0 mph N/A   Clear
10:55 AM 89.4 °F 87.7 °F 55.8 °F 32% 30.06 in 10.0 mi South 13.8 mph 20.7 mph N/A   Clear
11:15 AM 90.7 °F 88.7 °F 55.6 °F 30% 30.06 in 10.0 mi South 16.1 mph 24.2 mph N/A   Clear
11:35 AM 91.6 °F 89.6 °F 54.9 °F 29% 30.05 in 10.0 mi South 18.4 mph 25.3 mph N/A   Clear
11:55 AM 92.8 °F 90.9 °F 55.0 °F 28% 30.05 in 10.0 mi SSW 17.3 mph - N/A   Clear
12:15 PM 93.4 °F 91.3 °F 54.9 °F 27% 30.05 in 10.0 mi SSW 18.4 mph 25.3 mph N/A   Clear
12:35 PM 94.1 °F 91.9 °F 54.0 °F 26% 30.05 in 10.0 mi SSW 13.8 mph 23.0 mph N/A   Clear
12:55 PM 94.1 °F 91.9 °F 53.8 °F 26% 30.04 in 10.0 mi SSW 16.1 mph 24.2 mph N/A   Clear
1:15 PM 95.4 °F 93.2 °F 54.1 °F 25% 30.03 in 10.0 mi South 13.8 mph 21.9 mph N/A   Clear
1:35 PM 95.5 °F 93.1 °F 53.2 °F 24% 30.02 in 10.0 mi South 17.3 mph 23.0 mph N/A   Clear
1:55 PM 97.3 °F - 52.9 °F 22% 30.02 in 10.0 mi South 9.2 mph 31.1 mph N/A   Clear
2:15 PM 96.8 °F - 52.5 °F 22% 30.01 in 10.0 mi South 18.4 mph 26.5 mph N/A   Clear
2:35 PM 98.4 °F - 52.2 °F 21% 30.00 in 10.0 mi South 20.7 mph 26.5 mph N/A   Clear
2:55 PM 96.4 °F - 52.7 °F 23% 30.00 in 10.0 mi SSW 13.8 mph 18.4 mph N/A   Clear
3:15 PM 97.9 °F - 52.2 °F 21% 29.99 in 10.0 mi South 10.4 mph 27.6 mph N/A   Clear
3:35 PM 96.4 °F - 52.7 °F 23% 30.00 in 10.0 mi South 15.0 mph 20.7 mph N/A   Clear
3:55 PM 98.6 °F - 52.5 °F 21% 29.99 in 10.0 mi South 16.1 mph 24.2 mph N/A   Clear
4:15 PM 95.5 °F - 52.3 °F 23% 29.99 in 10.0 mi South 15.0 mph 25.3 mph N/A   Clear
4:35 PM 95.0 °F - 52.0 °F 23% 29.98 in 10.0 mi South 12.7 mph 26.5 mph N/A   Clear
4:55 PM 97.0 °F - 51.6 °F 22% 29.98 in 10.0 mi South 17.3 mph 27.6 mph N/A   Clear
5:15 PM 94.6 °F - 52.2 °F 24% 29.98 in 10.0 mi South 17.3 mph 24.2 mph N/A   Clear
5:35 PM 96.6 °F - 51.8 °F 22% 29.98 in 10.0 mi South 12.7 mph 25.3 mph N/A   Clear
5:55 PM 96.1 °F 93.8 °F 53.2 °F 24% 29.97 in 10.0 mi South 17.3 mph - N/A   Clear
6:15 PM 94.3 °F - 51.8 °F 24% 29.97 in 10.0 mi SSE 18.4 mph 23.0 mph N/A   Clear
6:35 PM 95.9 °F - 51.8 °F 22% 29.96 in 10.0 mi SSE 17.3 mph 27.6 mph N/A   Clear
6:55 PM 95.2 °F - 51.8 °F 23% 29.96 in 10.0 mi South 17.3 mph 24.2 mph N/A   Clear
7:15 PM 94.5 °F 92.1 °F 53.8 °F 25% 29.97 in 10.0 mi SSE 16.1 mph 31.1 mph N/A   Clear
7:35 PM 93.7 °F 91.2 °F 53.4 °F 25% 29.97 in 10.0 mi SSE 16.1 mph 29.9 mph N/A   Clear
7:55 PM 92.3 °F 89.7 °F 53.2 °F 26% 29.98 in 10.0 mi SSE 16.1 mph 25.3 mph N/A   Clear
8:15 PM 91.6 °F - 52.3 °F 26% 29.98 in 10.0 mi SSE 20.7 mph 24.2 mph N/A   Clear
8:35 PM 90.9 °F - 52.0 °F 26% 29.98 in 10.0 mi SSE 17.3 mph 21.9 mph N/A   Clear
8:55 PM 89.4 °F - 52.9 °F 29% 30.00 in 10.0 mi SSE 16.1 mph - N/A   Clear
9:15 PM 88.5 °F 86.3 °F 53.2 °F 30% 30.00 in 10.0 mi SSE 19.6 mph 24.2 mph N/A   Clear
9:35 PM 86.9 °F 84.9 °F 54.0 °F 32% 30.00 in 10.0 mi SSE 15.0 mph - N/A   Clear
9:55 PM 84.7 °F 83.3 °F 54.1 °F 35% 30.01 in 10.0 mi SSE 11.5 mph - N/A   Clear
10:15 PM 84.2 °F 82.8 °F 53.8 °F 35% 30.02 in 10.0 mi SSE 13.8 mph - N/A   Clear
10:35 PM 83.3 °F 82.0 °F 53.2 °F 35% 30.02 in 10.0 mi SSE 10.4 mph - N/A   Clear
10:55 PM 83.5 °F 82.1 °F 53.2 °F 35% 30.03 in 10.0 mi SSE 12.7 mph - N/A   Clear
11:15 PM 82.8 °F 81.6 °F 53.2 °F 36% 30.03 in 10.0 mi SSE 12.7 mph - N/A   Clear
11:35 PM 82.6 °F 81.6 °F 53.6 °F 37% 30.04 in 10.0 mi SSE 12.7 mph - N/A   Clear
11:55 PM 82.4 °F 81.4 °F 53.6 °F 37% 30.05 in 10.0 mi SSE 12.7 mph - N/A   Clear